{"data":{"norad_id":55990,"intl_designator":"2023-042E","name":"STARLINK-5946","alt_names":[],"object_type":"PAYLOAD","status":"ACTIVE","operator":null,"country":"US","launch_date":"2023-03-24","launch_site_code":"AFETR","launch_vehicle":null,"mission":null,"orbit_class":"UNKNOWN","rcs_meters":null,"size_class":null,"mass_kg":null,"dimensions":null,"purposes":["comms"],"wikipedia_slug":null,"has_3d_model":false,"image_url":null,"decayed_at":null,"tle_current":{"epoch":"2026-05-24T22:39:17.305056Z","epoch_age_seconds":90414,"freshness":"FRESH","line1":"1 55990U 23042E   26144.94395029 -.00000179  00000+0  30256-5 0  9995","line2":"2 55990  43.0045 348.7900 0001097 272.0090  88.0636 15.27573776174535","mean_motion":15.27573776,"eccentricity":0.0001097,"inclination_deg":43.0045,"raan_deg":348.79,"arg_perigee_deg":272.009,"mean_anomaly_deg":88.0636,"bstar":3.0256e-6,"rev_number":17453,"period_min":94.267132797388,"perigee_km":482.31505883879,"apogee_km":483.82040715722,"semimajor_km":6861.204732998,"source":"CELESTRAK","updated_at":"2026-05-25T13:38:17.922452Z"}}}